Погода в Ньюарк-он-Трент

Великобритания     53°04′26″N   0°48′33″E
темп.,
°C
ветер,
м/с
пор.,
м/с
влажн.,
%
обл.,
%
осадки,
мм/ч
давл.,
гПа
погр.,
м
13 мая, чт
чт1301:00+8вюв2288100 0.1 100929
04:00+7вюв2291100 0.0 100833
07:00+7всв2491100 0.0 1008130
10:00+12всв467699 0.0 1008707
13:00+14в677397 1.3 10071188
16:00+13в5779100 1.1 1007831
19:00+11всв5884100 1.4 1008597
22:00+8св3890100 0.0 1009225
14 мая, пт
пт1401:00+6ссв3694100 0.1 1009152
04:00+6с2592100 0.0 1009178
07:00+7с469299 0.1 1010283
10:00+10ссв4478100 0.1 1010916
13:00+11ссв227497 0.1 1010865
16:00+11ссв217299 0.0 1009699
19:00+11всв337678 0.0 1008509
22:00+6вюв4793100 0.0 1008155
15 мая, сб
сб1501:00+7вюв51089100 0.0 1005327
04:00+7юв5995100 0.3 1003354
07:00+8юв4695100 0.4 1002330
10:00+11ююв3578100 0.1 10001027
13:00+9ююв3591100 0.6 1000452
16:00+8ю3592100 0.2 999374
19:00+9ю238870 0.3 998443
22:00+6ююв119141 0.0 99910
16 мая, вс
вс1601:00+7юв249397 0.1 998116
04:00+6ююз239594 0.1 99785
07:00+7ююз128910 0.1 997109
10:00+11юв227456 0.1 997875
13:00+14в336797 1.1 9961321
16:00+12всв347840 1.6 996869
19:00+12св358418 2.8 997544
22:00+7ссв359549 0.3 100089
17 мая, пн
пн1701:00+5с349734 0.3 100183
04:00+7сз389894 0.0 1002317
07:00+7ссз489783 0.1 1004369
10:00+8ссз469298 0.3 1006408
13:00+11ссз357752 0.8 1007819
16:00+11сз598675 1.5 1008459
19:00+10зсз7107717 2.1 1010946
22:00+7зсз512716 0.0 1013372